owner,sensor,date,latitude,longitude,vertical_datum,sea_water_temperature,qcFlag 
NERRS,ioos:station:NOAA.NERRS:gtmpcwq:1,2013-12-19T17:45:00Z,29.6671,-81.2574,0.0,13.9,2 
NERRS,ioos:station:NOAA.NERRS:gtmpcwq:1,2013-12-19T18:45:00Z,29.6671,-81.2574,0.0,14.0,2 
NERRS,ioos:station:NOAA.NERRS:gtmpcwq:1,2013-12-19T19:45:00Z,29.6671,-81.2574,0.0,13.7,2 
NERRS,ioos:station:NOAA.NERRS:gtmpcwq:1,2013-12-19T20:45:00Z,29.6671,-81.2574,0.0,13.8,2 
NERRS,ioos:station:NOAA.NERRS:gtmpcwq:1,2013-12-19T21:45:00Z,29.6671,-81.2574,0.0,13.8,2 
NERRS,ioos:station:NOAA.NERRS:gtmpcwq:1,2013-12-19T22:45:00Z,29.6671,-81.2574,0.0,13.9,2 
NERRS,ioos:station:NOAA.NERRS:gtmpcwq:1,2013-12-19T23:45:00Z,29.6671,-81.2574,0.0,13.6,2 
NERRS,ioos:station:NOAA.NERRS:gtmpcwq:1,2013-12-20T00:45:00Z,29.6671,-81.2574,0.0,13.5,2 
NERRS,ioos:station:NOAA.NERRS:gtmpcwq:1,2013-12-20T01:45:00Z,29.6671,-81.2574,0.0,13.3,2 
NERRS,ioos:station:NOAA.NERRS:gtmpcwq:1,2013-12-20T02:45:00Z,29.6671,-81.2574,0.0,13.5,2 
NERRS,ioos:station:NOAA.NERRS:gtmpcwq:1,2013-12-20T03:45:00Z,29.6671,-81.2574,0.0,13.7,2 
NERRS,ioos:station:NOAA.NERRS:gtmpcwq:1,2013-12-20T04:45:00Z,29.6671,-81.2574,0.0,13.8,2 
NERRS,ioos:station:NOAA.NERRS:gtmpcwq:1,2013-12-20T05:45:00Z,29.6671,-81.2574,0.0,14.2,2 
NERRS,ioos:station:NOAA.NERRS:gtmpcwq:1,2013-12-20T06:45:00Z,29.6671,-81.2574,0.0,14.6,2 
NERRS,ioos:station:NOAA.NERRS:gtmpcwq:1,2013-12-20T07:45:00Z,29.6671,-81.2574,0.0,14.3,2 
NERRS,ioos:station:NOAA.NERRS:gtmpcwq:1,2013-12-20T08:45:00Z,29.6671,-81.2574,0.0,13.5,2 
NERRS,ioos:station:NOAA.NERRS:gtmpcwq:1,2013-12-20T09:45:00Z,29.6671,-81.2574,0.0,12.9,2 
NERRS,ioos:station:NOAA.NERRS:gtmpcwq:1,2013-12-20T10:45:00Z,29.6671,-81.2574,0.0,12.8,2 
NERRS,ioos:station:NOAA.NERRS:gtmpcwq:1,2013-12-20T11:45:00Z,29.6671,-81.2574,0.0,12.7,2 
NERRS,ioos:station:NOAA.NERRS:gtmpcwq:1,2013-12-20T12:45:00Z,29.6671,-81.2574,0.0,12.6,2 
NERRS,ioos:station:NOAA.NERRS:gtmpcwq:1,2013-12-20T13:45:00Z,29.6671,-81.2574,0.0,12.5,2 
NERRS,ioos:station:NOAA.NERRS:gtmpcwq:1,2013-12-20T14:45:00Z,29.6671,-81.2574,0.0,12.7,2 
NERRS,ioos:station:NOAA.NERRS:gtmpcwq:1,2013-12-20T15:45:00Z,29.6671,-81.2574,0.0,13.3,2 
NERRS,ioos:station:NOAA.NERRS:gtmpcwq:1,2013-12-20T16:45:00Z,29.6671,-81.2574,0.0,14.5,2 
NERRS,ioos:station:NOAA.NERRS:gtmpcwq:1,2013-12-20T17:45:00Z,29.6671,-81.2574,0.0,15.3,2 
NERRS,ioos:station:NOAA.NERRS:gtmpcwq:1,2013-12-20T18:45:00Z,29.6671,-81.2574,0.0,15.8,2 
NERRS,ioos:station:NOAA.NERRS:gtmpcwq:1,2013-12-20T19:45:00Z,29.6671,-81.2574,0.0,15.5,2 
NERRS,ioos:station:NOAA.NERRS:gtmpcwq:1,2013-12-20T20:45:00Z,29.6671,-81.2574,0.0,15.2,2 
NERRS,ioos:station:NOAA.NERRS:gtmpcwq:1,2013-12-20T21:45:00Z,29.6671,-81.2574,0.0,15.1,2 
NERRS,ioos:station:NOAA.NERRS:gtmpcwq:1,2013-12-20T22:45:00Z,29.6671,-81.2574,0.0,14.9,2 
NERRS,ioos:station:NOAA.NERRS:gtmpcwq:1,2013-12-20T23:45:00Z,29.6671,-81.2574,0.0,14.5,2 
NERRS,ioos:station:NOAA.NERRS:gtmpcwq:1,2013-12-21T00:45:00Z,29.6671,-81.2574,0.0,14.2,2 
NERRS,ioos:station:NOAA.NERRS:gtmpcwq:1,2013-12-21T01:45:00Z,29.6671,-81.2574,0.0,14.2,2 
NERRS,ioos:station:NOAA.NERRS:gtmpcwq:1,2013-12-21T02:45:00Z,29.6671,-81.2574,0.0,14.5,2 
NERRS,ioos:station:NOAA.NERRS:gtmpcwq:1,2013-12-21T03:45:00Z,29.6671,-81.2574,0.0,14.5,2 
NERRS,ioos:station:NOAA.NERRS:gtmpcwq:1,2013-12-21T04:45:00Z,29.6671,-81.2574,0.0,14.7,2 
NERRS,ioos:station:NOAA.NERRS:gtmpcwq:1,2013-12-21T05:45:00Z,29.6671,-81.2574,0.0,15.5,2 
NERRS,ioos:station:NOAA.NERRS:gtmpcwq:1,2013-12-21T06:45:00Z,29.6671,-81.2574,0.0,16.2,2 
NERRS,ioos:station:NOAA.NERRS:gtmpcwq:1,2013-12-21T07:45:00Z,29.6671,-81.2574,0.0,16.6,2 
NERRS,ioos:station:NOAA.NERRS:gtmpcwq:1,2013-12-21T08:45:00Z,29.6671,-81.2574,0.0,16.4,2 
NERRS,ioos:station:NOAA.NERRS:gtmpcwq:1,2013-12-21T09:45:00Z,29.6671,-81.2574,0.0,16.1,2 
NERRS,ioos:station:NOAA.NERRS:gtmpcwq:1,2013-12-21T10:45:00Z,29.6671,-81.2574,0.0,15.7,2 
NERRS,ioos:station:NOAA.NERRS:gtmpcwq:1,2013-12-21T11:45:00Z,29.6671,-81.2574,0.0,15.1,2 
NERRS,ioos:station:NOAA.NERRS:gtmpcwq:1,2013-12-21T12:45:00Z,29.6671,-81.2574,0.0,14.7,2 
NERRS,ioos:station:NOAA.NERRS:gtmpcwq:1,2013-12-21T13:45:00Z,29.6671,-81.2574,0.0,14.1,2 
NERRS,ioos:station:NOAA.NERRS:gtmpcwq:1,2013-12-21T14:45:00Z,29.6671,-81.2574,0.0,13.8,2 
NERRS,ioos:station:NOAA.NERRS:gtmpcwq:1,2013-12-21T15:45:00Z,29.6671,-81.2574,0.0,14.9,2 
NERRS,ioos:station:NOAA.NERRS:gtmpcwq:1,2013-12-21T16:45:00Z,29.6671,-81.2574,0.0,15.4,2 
NERRS,ioos:station:NOAA.NERRS:gtmpcwq:1,2013-12-21T17:45:00Z,29.6671,-81.2574,0.0,17.1,2 
NERRS,ioos:station:NOAA.NERRS:gtmpcwq:1,2013-12-21T18:45:00Z,29.6671,-81.2574,0.0,18.2,2 
NERRS,ioos:station:NOAA.NERRS:gtmpcwq:1,2013-12-21T19:45:00Z,29.6671,-81.2574,0.0,17.2,2 
NERRS,ioos:station:NOAA.NERRS:gtmpcwq:1,2013-12-21T20:45:00Z,29.6671,-81.2574,0.0,17.4,2 
NERRS,ioos:station:NOAA.NERRS:gtmpcwq:1,2013-12-21T21:45:00Z,29.6671,-81.2574,0.0,17.1,2 
NERRS,ioos:station:NOAA.NERRS:gtmpcwq:1,2013-12-21T22:45:00Z,29.6671,-81.2574,0.0,17.0,2 
NERRS,ioos:station:NOAA.NERRS:gtmpcwq:1,2013-12-21T23:45:00Z,29.6671,-81.2574,0.0,16.8,2 
NERRS,ioos:station:NOAA.NERRS:gtmpcwq:1,2013-12-22T00:45:00Z,29.6671,-81.2574,0.0,16.3,2 
NERRS,ioos:station:NOAA.NERRS:gtmpcwq:1,2013-12-22T01:45:00Z,29.6671,-81.2574,0.0,16.2,2 
NERRS,ioos:station:NOAA.NERRS:gtmpcwq:1,2013-12-22T02:45:00Z,29.6671,-81.2574,0.0,16.4,2 
NERRS,ioos:station:NOAA.NERRS:gtmpcwq:1,2013-12-22T03:45:00Z,29.6671,-81.2574,0.0,17.3,2 
NERRS,ioos:station:NOAA.NERRS:gtmpcwq:1,2013-12-22T04:45:00Z,29.6671,-81.2574,0.0,16.8,2 
NERRS,ioos:station:NOAA.NERRS:gtmpcwq:1,2013-12-22T05:45:00Z,29.6671,-81.2574,0.0,17.2,2 
NERRS,ioos:station:NOAA.NERRS:gtmpcwq:1,2013-12-22T06:45:00Z,29.6671,-81.2574,0.0,17.7,2 
NERRS,ioos:station:NOAA.NERRS:gtmpcwq:1,2013-12-22T07:45:00Z,29.6671,-81.2574,0.0,18.4,2 
NERRS,ioos:station:NOAA.NERRS:gtmpcwq:1,2013-12-22T08:45:00Z,29.6671,-81.2574,0.0,18.1,2 
NERRS,ioos:station:NOAA.NERRS:gtmpcwq:1,2013-12-22T09:45:00Z,29.6671,-81.2574,0.0,17.7,2 
NERRS,ioos:station:NOAA.NERRS:gtmpcwq:1,2013-12-22T10:45:00Z,29.6671,-81.2574,0.0,16.6,2 
NERRS,ioos:station:NOAA.NERRS:gtmpcwq:1,2013-12-22T11:45:00Z,29.6671,-81.2574,0.0,16.4,2 
NERRS,ioos:station:NOAA.NERRS:gtmpcwq:1,2013-12-22T12:45:00Z,29.6671,-81.2574,0.0,16.3,2 
NERRS,ioos:station:NOAA.NERRS:gtmpcwq:1,2013-12-22T13:45:00Z,29.6671,-81.2574,0.0,16.3,2 
NERRS,ioos:station:NOAA.NERRS:gtmpcwq:1,2013-12-22T14:45:00Z,29.6671,-81.2574,0.0,16.2,2 
NERRS,ioos:station:NOAA.NERRS:gtmpcwq:1,2013-12-22T15:45:00Z,29.6671,-81.2574,0.0,17.1,2 
NERRS,ioos:station:NOAA.NERRS:gtmpcwq:1,2013-12-22T16:45:00Z,29.6671,-81.2574,0.0,18.1,2 
NERRS,ioos:station:NOAA.NERRS:gtmpcwq:1,2013-12-22T17:45:00Z,29.6671,-81.2574,0.0,18.9,2 
NERRS,ioos:station:NOAA.NERRS:gtmpcwq:1,2013-12-22T18:45:00Z,29.6671,-81.2574,0.0,19.3,2 
NERRS,ioos:station:NOAA.NERRS:gtmpcwq:1,2013-12-22T19:45:00Z,29.6671,-81.2574,0.0,19.9,2 
NERRS,ioos:station:NOAA.NERRS:gtmpcwq:1,2013-12-22T20:45:00Z,29.6671,-81.2574,0.0,19.1,2 
NERRS,ioos:station:NOAA.NERRS:gtmpcwq:1,2013-12-22T21:45:00Z,29.6671,-81.2574,0.0,19.4,2 
NERRS,ioos:station:NOAA.NERRS:gtmpcwq:1,2013-12-22T23:45:00Z,29.6671,-81.2574,0.0,19.1,2 
NERRS,ioos:station:NOAA.NERRS:gtmpcwq:1,2013-12-23T19:45:00Z,29.6671,-81.2574,0.0,20.7,2 
NERRS,ioos:station:NOAA.NERRS:gtmpcwq:1,2013-12-23T20:45:00Z,29.6671,-81.2574,0.0,20.3,2 
NERRS,ioos:station:NOAA.NERRS:gtmpcwq:1,2013-12-23T21:45:00Z,29.6671,-81.2574,0.0,20.4,2 
NERRS,ioos:station:NOAA.NERRS:gtmpcwq:1,2013-12-23T22:45:00Z,29.6671,-81.2574,0.0,20.3,2 
NERRS,ioos:station:NOAA.NERRS:gtmpcwq:1,2013-12-23T23:45:00Z,29.6671,-81.2574,0.0,20.3,2 
NERRS,ioos:station:NOAA.NERRS:gtmpcwq:1,2013-12-24T00:45:00Z,29.6671,-81.2574,0.0,20.2,2 
NERRS,ioos:station:NOAA.NERRS:gtmpcwq:1,2013-12-24T01:45:00Z,29.6671,-81.2574,0.0,20.2,2 
NERRS,ioos:station:NOAA.NERRS:gtmpcwq:1,2013-12-24T02:45:00Z,29.6671,-81.2574,0.0,20.2,2 
NERRS,ioos:station:NOAA.NERRS:gtmpcwq:1,2013-12-24T03:45:00Z,29.6671,-81.2574,0.0,20.2,2 
NERRS,ioos:station:NOAA.NERRS:gtmpcwq:1,2013-12-24T04:45:00Z,29.6671,-81.2574,0.0,20.0,2 
NERRS,ioos:station:NOAA.NERRS:gtmpcwq:1,2013-12-24T05:45:00Z,29.6671,-81.2574,0.0,20.0,2 
NERRS,ioos:station:NOAA.NERRS:gtmpcwq:1,2013-12-24T06:45:00Z,29.6671,-81.2574,0.0,20.3,2 
NERRS,ioos:station:NOAA.NERRS:gtmpcwq:1,2013-12-24T07:45:00Z,29.6671,-81.2574,0.0,20.9,2 
NERRS,ioos:station:NOAA.NERRS:gtmpcwq:1,2013-12-24T08:45:00Z,29.6671,-81.2574,0.0,21.4,2 
NERRS,ioos:station:NOAA.NERRS:gtmpcwq:1,2013-12-24T09:45:00Z,29.6671,-81.2574,0.0,21.1,2 
NERRS,ioos:station:NOAA.NERRS:gtmpcwq:1,2013-12-24T10:45:00Z,29.6671,-81.2574,0.0,21.3,2 
NERRS,ioos:station:NOAA.NERRS:gtmpcwq:1,2013-12-24T11:45:00Z,29.6671,-81.2574,0.0,21.2,2 
NERRS,ioos:station:NOAA.NERRS:gtmpcwq:1,2013-12-24T12:45:00Z,29.6671,-81.2574,0.0,21.2,2 
NERRS,ioos:station:NOAA.NERRS:gtmpcwq:1,2013-12-24T13:45:00Z,29.6671,-81.2574,0.0,20.9,2 
NERRS,ioos:station:NOAA.NERRS:gtmpcwq:1,2013-12-24T14:45:00Z,29.6671,-81.2574,0.0,20.5,2 
NERRS,ioos:station:NOAA.NERRS:gtmpcwq:1,2013-12-24T16:45:00Z,29.6671,-81.2574,0.0,19.7,2 
NERRS,ioos:station:NOAA.NERRS:gtmpcwq:1,2013-12-24T17:45:00Z,29.6671,-81.2574,0.0,19.7,2 
NERRS,ioos:station:NOAA.NERRS:gtmpcwq:1,2013-12-24T18:45:00Z,29.6671,-81.2574,0.0,20.0,2 
NERRS,ioos:station:NOAA.NERRS:gtmpcwq:1,2013-12-24T19:45:00Z,29.6671,-81.2574,0.0,20.5,2 
NERRS,ioos:station:NOAA.NERRS:gtmpcwq:1,2013-12-24T20:45:00Z,29.6671,-81.2574,0.0,20.8,2 
NERRS,ioos:station:NOAA.NERRS:gtmpcwq:1,2013-12-24T21:45:00Z,29.6671,-81.2574,0.0,21.0,2 
NERRS,ioos:station:NOAA.NERRS:gtmpcwq:1,2013-12-24T23:45:00Z,29.6671,-81.2574,0.0,20.8,2 
NERRS,ioos:station:NOAA.NERRS:gtmpcwq:1,2013-12-25T00:45:00Z,29.6671,-81.2574,0.0,20.6,2 
NERRS,ioos:station:NOAA.NERRS:gtmpcwq:1,2013-12-25T01:45:00Z,29.6671,-81.2574,0.0,20.6,2 
NERRS,ioos:station:NOAA.NERRS:gtmpcwq:1,2013-12-25T02:45:00Z,29.6671,-81.2574,0.0,20.4,2 
NERRS,ioos:station:NOAA.NERRS:gtmpcwq:1,2013-12-25T03:45:00Z,29.6671,-81.2574,0.0,19.9,2 
NERRS,ioos:station:NOAA.NERRS:gtmpcwq:1,2013-12-25T04:45:00Z,29.6671,-81.2574,0.0,19.9,2 
NERRS,ioos:station:NOAA.NERRS:gtmpcwq:1,2013-12-25T05:45:00Z,29.6671,-81.2574,0.0,17.8,2 
NERRS,ioos:station:NOAA.NERRS:gtmpcwq:1,2013-12-25T06:45:00Z,29.6671,-81.2574,0.0,18.3,2 
NERRS,ioos:station:NOAA.NERRS:gtmpcwq:1,2013-12-25T07:45:00Z,29.6671,-81.2574,0.0,17.4,2 
NERRS,ioos:station:NOAA.NERRS:gtmpcwq:1,2013-12-25T08:45:00Z,29.6671,-81.2574,0.0,17.4,2 
NERRS,ioos:station:NOAA.NERRS:gtmpcwq:1,2013-12-25T09:45:00Z,29.6671,-81.2574,0.0,17.3,2 
NERRS,ioos:station:NOAA.NERRS:gtmpcwq:1,2013-12-25T10:45:00Z,29.6671,-81.2574,0.0,18.4,2 
NERRS,ioos:station:NOAA.NERRS:gtmpcwq:1,2013-12-25T11:45:00Z,29.6671,-81.2574,0.0,18.3,2 
NERRS,ioos:station:NOAA.NERRS:gtmpcwq:1,2013-12-25T12:45:00Z,29.6671,-81.2574,0.0,18.4,2 
NERRS,ioos:station:NOAA.NERRS:gtmpcwq:1,2013-12-25T13:45:00Z,29.6671,-81.2574,0.0,18.6,2 
NERRS,ioos:station:NOAA.NERRS:gtmpcwq:1,2013-12-25T14:45:00Z,29.6671,-81.2574,0.0,18.4,2 
NERRS,ioos:station:NOAA.NERRS:gtmpcwq:1,2013-12-25T15:45:00Z,29.6671,-81.2574,0.0,18.1,2 
NERRS,ioos:station:NOAA.NERRS:gtmpcwq:1,2013-12-25T16:45:00Z,29.6671,-81.2574,0.0,17.4,2 
NERRS,ioos:station:NOAA.NERRS:gtmpcwq:1,2013-12-25T17:45:00Z,29.6671,-81.2574,0.0,17.5,2 
NERRS,ioos:station:NOAA.NERRS:gtmpcwq:1,2013-12-25T18:45:00Z,29.6671,-81.2574,0.0,17.9,2 
NERRS,ioos:station:NOAA.NERRS:gtmpcwq:1,2013-12-25T19:45:00Z,29.6671,-81.2574,0.0,18.3,2 
NERRS,ioos:station:NOAA.NERRS:gtmpcwq:1,2013-12-25T20:45:00Z,29.6671,-81.2574,0.0,18.3,2 
NERRS,ioos:station:NOAA.NERRS:gtmpcwq:1,2013-12-25T21:45:00Z,29.6671,-81.2574,0.0,18.7,2 
NERRS,ioos:station:NOAA.NERRS:gtmpcwq:1,2013-12-25T22:45:00Z,29.6671,-81.2574,0.0,18.9,2 
NERRS,ioos:station:NOAA.NERRS:gtmpcwq:1,2013-12-25T23:45:00Z,29.6671,-81.2574,0.0,18.9,2 
NERRS,ioos:station:NOAA.NERRS:gtmpcwq:1,2013-12-26T00:45:00Z,29.6671,-81.2574,0.0,18.6,2 
NERRS,ioos:station:NOAA.NERRS:gtmpcwq:1,2013-12-26T01:45:00Z,29.6671,-81.2574,0.0,18.5,2 
NERRS,ioos:station:NOAA.NERRS:gtmpcwq:1,2013-12-26T02:45:00Z,29.6671,-81.2574,0.0,18.3,2 
NERRS,ioos:station:NOAA.NERRS:gtmpcwq:1,2013-12-26T03:45:00Z,29.6671,-81.2574,0.0,18.2,2 
NERRS,ioos:station:NOAA.NERRS:gtmpcwq:1,2013-12-26T04:45:00Z,29.6671,-81.2574,0.0,18.2,2 
NERRS,ioos:station:NOAA.NERRS:gtmpcwq:1,2013-12-26T05:45:00Z,29.6671,-81.2574,0.0,18.0,2 
NERRS,ioos:station:NOAA.NERRS:gtmpcwq:1,2013-12-26T06:45:00Z,29.6671,-81.2574,0.0,17.6,2 
NERRS,ioos:station:NOAA.NERRS:gtmpcwq:1,2013-12-26T07:45:00Z,29.6671,-81.2574,0.0,18.2,2 
NERRS,ioos:station:NOAA.NERRS:gtmpcwq:1,2013-12-26T08:45:00Z,29.6671,-81.2574,0.0,17.6,2 
NERRS,ioos:station:NOAA.NERRS:gtmpcwq:1,2013-12-26T09:45:00Z,29.6671,-81.2574,0.0,17.7,2 
NERRS,ioos:station:NOAA.NERRS:gtmpcwq:1,2013-12-26T10:45:00Z,29.6671,-81.2574,0.0,17.4,2 
NERRS,ioos:station:NOAA.NERRS:gtmpcwq:1,2013-12-26T11:45:00Z,29.6671,-81.2574,0.0,17.3,2 
NERRS,ioos:station:NOAA.NERRS:gtmpcwq:1,2013-12-26T12:45:00Z,29.6671,-81.2574,0.0,17.5,2 
NERRS,ioos:station:NOAA.NERRS:gtmpcwq:1,2013-12-26T13:45:00Z,29.6671,-81.2574,0.0,17.6,2 
NERRS,ioos:station:NOAA.NERRS:gtmpcwq:1,2013-12-26T14:45:00Z,29.6671,-81.2574,0.0,17.7,2 
NERRS,ioos:station:NOAA.NERRS:gtmpcwq:1,2013-12-26T15:45:00Z,29.6671,-81.2574,0.0,17.7,2 
NERRS,ioos:station:NOAA.NERRS:gtmpcwq:1,2013-12-26T16:45:00Z,29.6671,-81.2574,0.0,17.6,2 
NERRS,ioos:station:NOAA.NERRS:gtmpcwq:1,2013-12-26T17:45:00Z,29.6671,-81.2574,0.0,17.6,2 
NERRS,ioos:station:NOAA.NERRS:gtmpcwq:1,2013-12-26T18:45:00Z,29.6671,-81.2574,0.0,18.2,2 
NERRS,ioos:station:NOAA.NERRS:gtmpcwq:1,2013-12-26T19:45:00Z,29.6671,-81.2574,0.0,18.2,2 
NERRS,ioos:station:NOAA.NERRS:gtmpcwq:1,2013-12-26T20:45:00Z,29.6671,-81.2574,0.0,18.0,2 
NERRS,ioos:station:NOAA.NERRS:gtmpcwq:1,2013-12-26T21:45:00Z,29.6671,-81.2574,0.0,17.8,2 
NERRS,ioos:station:NOAA.NERRS:gtmpcwq:1,2013-12-26T22:45:00Z,29.6671,-81.2574,0.0,17.8,2 
NERRS,ioos:station:NOAA.NERRS:gtmpcwq:1,2013-12-26T23:45:00Z,29.6671,-81.2574,0.0,17.7,2 
NERRS,ioos:station:NOAA.NERRS:gtmpcwq:1,2013-12-27T00:45:00Z,29.6671,-81.2574,0.0,17.7,2 
NERRS,ioos:station:NOAA.NERRS:gtmpcwq:1,2013-12-27T01:45:00Z,29.6671,-81.2574,0.0,17.8,2 
NERRS,ioos:station:NOAA.NERRS:gtmpcwq:1,2013-12-27T02:45:00Z,29.6671,-81.2574,0.0,17.8,2 
NERRS,ioos:station:NOAA.NERRS:gtmpcwq:1,2013-12-27T03:45:00Z,29.6671,-81.2574,0.0,17.8,2 
NERRS,ioos:station:NOAA.NERRS:gtmpcwq:1,2013-12-27T04:45:00Z,29.6671,-81.2574,0.0,17.8,2 
NERRS,ioos:station:NOAA.NERRS:gtmpcwq:1,2013-12-27T06:45:00Z,29.6671,-81.2574,0.0,17.5,2 
NERRS,ioos:station:NOAA.NERRS:gtmpcwq:1,2013-12-27T07:45:00Z,29.6671,-81.2574,0.0,17.2,2 
NERRS,ioos:station:NOAA.NERRS:gtmpcwq:1,2013-12-27T08:45:00Z,29.6671,-81.2574,0.0,17.2,2 
NERRS,ioos:station:NOAA.NERRS:gtmpcwq:1,2013-12-27T09:45:00Z,29.6671,-81.2574,0.0,16.8,2 
NERRS,ioos:station:NOAA.NERRS:gtmpcwq:1,2013-12-27T10:45:00Z,29.6671,-81.2574,0.0,16.5,2 
NERRS,ioos:station:NOAA.NERRS:gtmpcwq:1,2013-12-27T11:45:00Z,29.6671,-81.2574,0.0,16.4,2 
NERRS,ioos:station:NOAA.NERRS:gtmpcwq:1,2013-12-27T12:45:00Z,29.6671,-81.2574,0.0,16.4,2 
NERRS,ioos:station:NOAA.NERRS:gtmpcwq:1,2013-12-27T13:45:00Z,29.6671,-81.2574,0.0,16.5,2 
NERRS,ioos:station:NOAA.NERRS:gtmpcwq:1,2013-12-27T14:45:00Z,29.6671,-81.2574,0.0,16.8,2 
NERRS,ioos:station:NOAA.NERRS:gtmpcwq:1,2013-12-27T15:45:00Z,29.6671,-81.2574,0.0,17.0,2 
NERRS,ioos:station:NOAA.NERRS:gtmpcwq:1,2013-12-27T16:45:00Z,29.6671,-81.2574,0.0,17.2,2 
NERRS,ioos:station:NOAA.NERRS:gtmpcwq:1,2013-12-27T17:45:00Z,29.6671,-81.2574,0.0,17.2,2 
NERRS,ioos:station:NOAA.NERRS:gtmpcwq:1,2013-12-27T18:45:00Z,29.6671,-81.2574,0.0,17.3,2 
NERRS,ioos:station:NOAA.NERRS:gtmpcwq:1,2013-12-27T19:45:00Z,29.6671,-81.2574,0.0,17.4,2 
NERRS,ioos:station:NOAA.NERRS:gtmpcwq:1,2013-12-27T20:45:00Z,29.6671,-81.2574,0.0,17.5,2 
NERRS,ioos:station:NOAA.NERRS:gtmpcwq:1,2013-12-27T21:45:00Z,29.6671,-81.2574,0.0,17.2,2 
NERRS,ioos:station:NOAA.NERRS:gtmpcwq:1,2013-12-27T22:45:00Z,29.6671,-81.2574,0.0,17.1,2 
NERRS,ioos:station:NOAA.NERRS:gtmpcwq:1,2013-12-27T23:45:00Z,29.6671,-81.2574,0.0,17.1,2 
NERRS,ioos:station:NOAA.NERRS:gtmpcwq:1,2013-12-28T00:45:00Z,29.6671,-81.2574,0.0,17.1,2 
NERRS,ioos:station:NOAA.NERRS:gtmpcwq:1,2013-12-28T01:45:00Z,29.6671,-81.2574,0.0,17.2,2 
NERRS,ioos:station:NOAA.NERRS:gtmpcwq:1,2013-12-28T02:45:00Z,29.6671,-81.2574,0.0,17.2,2 
NERRS,ioos:station:NOAA.NERRS:gtmpcwq:1,2013-12-28T03:45:00Z,29.6671,-81.2574,0.0,17.2,2 
NERRS,ioos:station:NOAA.NERRS:gtmpcwq:1,2013-12-28T04:45:00Z,29.6671,-81.2574,0.0,17.2,2 
NERRS,ioos:station:NOAA.NERRS:gtmpcwq:1,2013-12-28T05:45:00Z,29.6671,-81.2574,0.0,17.2,2 
NERRS,ioos:station:NOAA.NERRS:gtmpcwq:1,2013-12-28T06:45:00Z,29.6671,-81.2574,0.0,17.3,2 
NERRS,ioos:station:NOAA.NERRS:gtmpcwq:1,2013-12-28T07:45:00Z,29.6671,-81.2574,0.0,17.2,2 
NERRS,ioos:station:NOAA.NERRS:gtmpcwq:1,2013-12-28T08:45:00Z,29.6671,-81.2574,0.0,17.1,2 
NERRS,ioos:station:NOAA.NERRS:gtmpcwq:1,2013-12-28T09:45:00Z,29.6671,-81.2574,0.0,17.0,2 
NERRS,ioos:station:NOAA.NERRS:gtmpcwq:1,2013-12-28T10:45:00Z,29.6671,-81.2574,0.0,16.9,2 
NERRS,ioos:station:NOAA.NERRS:gtmpcwq:1,2013-12-28T11:45:00Z,29.6671,-81.2574,0.0,16.8,2 
NERRS,ioos:station:NOAA.NERRS:gtmpcwq:1,2013-12-28T12:45:00Z,29.6671,-81.2574,0.0,16.8,2 
NERRS,ioos:station:NOAA.NERRS:gtmpcwq:1,2013-12-28T13:45:00Z,29.6671,-81.2574,0.0,16.8,2 
NERRS,ioos:station:NOAA.NERRS:gtmpcwq:1,2013-12-28T14:45:00Z,29.6671,-81.2574,0.0,16.8,2 
NERRS,ioos:station:NOAA.NERRS:gtmpcwq:1,2013-12-28T15:45:00Z,29.6671,-81.2574,0.0,17.1,2 
NERRS,ioos:station:NOAA.NERRS:gtmpcwq:1,2013-12-28T16:45:00Z,29.6671,-81.2574,0.0,17.5,2 
NERRS,ioos:station:NOAA.NERRS:gtmpcwq:1,2013-12-28T17:45:00Z,29.6671,-81.2574,0.0,17.7,2 
NERRS,ioos:station:NOAA.NERRS:gtmpcwq:1,2013-12-28T18:45:00Z,29.6671,-81.2574,0.0,17.7,2 
NERRS,ioos:station:NOAA.NERRS:gtmpcwq:1,2013-12-28T19:45:00Z,29.6671,-81.2574,0.0,17.7,2 
NERRS,ioos:station:NOAA.NERRS:gtmpcwq:1,2013-12-28T20:45:00Z,29.6671,-81.2574,0.0,18.4,2 
NERRS,ioos:station:NOAA.NERRS:gtmpcwq:1,2013-12-28T21:45:00Z,29.6671,-81.2574,0.0,18.3,2 
NERRS,ioos:station:NOAA.NERRS:gtmpcwq:1,2013-12-28T22:45:00Z,29.6671,-81.2574,0.0,18.4,2 
NERRS,ioos:station:NOAA.NERRS:gtmpcwq:1,2013-12-28T23:45:00Z,29.6671,-81.2574,0.0,18.7,2 
NERRS,ioos:station:NOAA.NERRS:gtmpcwq:1,2013-12-29T00:45:00Z,29.6671,-81.2574,0.0,19.0,2 
NERRS,ioos:station:NOAA.NERRS:gtmpcwq:1,2013-12-29T01:45:00Z,29.6671,-81.2574,0.0,19.0,2 
NERRS,ioos:station:NOAA.NERRS:gtmpcwq:1,2013-12-29T02:45:00Z,29.6671,-81.2574,0.0,18.7,2 
NERRS,ioos:station:NOAA.NERRS:gtmpcwq:1,2013-12-29T03:45:00Z,29.6671,-81.2574,0.0,18.5,2 
NERRS,ioos:station:NOAA.NERRS:gtmpcwq:1,2013-12-29T04:45:00Z,29.6671,-81.2574,0.0,18.5,2 
NERRS,ioos:station:NOAA.NERRS:gtmpcwq:1,2013-12-29T05:45:00Z,29.6671,-81.2574,0.0,18.5,2 
NERRS,ioos:station:NOAA.NERRS:gtmpcwq:1,2013-12-29T06:45:00Z,29.6671,-81.2574,0.0,18.4,2 
NERRS,ioos:station:NOAA.NERRS:gtmpcwq:1,2013-12-29T07:45:00Z,29.6671,-81.2574,0.0,18.3,2 
NERRS,ioos:station:NOAA.NERRS:gtmpcwq:1,2013-12-29T08:45:00Z,29.6671,-81.2574,0.0,18.3,2 
NERRS,ioos:station:NOAA.NERRS:gtmpcwq:1,2013-12-29T09:45:00Z,29.6671,-81.2574,0.0,18.5,2 
NERRS,ioos:station:NOAA.NERRS:gtmpcwq:1,2013-12-29T10:45:00Z,29.6671,-81.2574,0.0,18.6,2 
NERRS,ioos:station:NOAA.NERRS:gtmpcwq:1,2013-12-29T11:45:00Z,29.6671,-81.2574,0.0,18.8,2 
NERRS,ioos:station:NOAA.NERRS:gtmpcwq:1,2013-12-29T12:45:00Z,29.6671,-81.2574,0.0,18.9,2 
NERRS,ioos:station:NOAA.NERRS:gtmpcwq:1,2013-12-29T13:45:00Z,29.6671,-81.2574,0.0,18.9,2 
NERRS,ioos:station:NOAA.NERRS:gtmpcwq:1,2013-12-29T14:45:00Z,29.6671,-81.2574,0.0,18.9,2 
NERRS,ioos:station:NOAA.NERRS:gtmpcwq:1,2013-12-29T15:45:00Z,29.6671,-81.2574,0.0,18.9,2 
NERRS,ioos:station:NOAA.NERRS:gtmpcwq:1,2013-12-29T16:45:00Z,29.6671,-81.2574,0.0,18.9,2 
NERRS,ioos:station:NOAA.NERRS:gtmpcwq:1,2013-12-29T17:45:00Z,29.6671,-81.2574,0.0,19.0,2 
NERRS,ioos:station:NOAA.NERRS:gtmpcwq:1,2013-12-29T18:45:00Z,29.6671,-81.2574,0.0,19.0,2 
NERRS,ioos:station:NOAA.NERRS:gtmpcwq:1,2013-12-29T19:45:00Z,29.6671,-81.2574,0.0,19.1,2 
NERRS,ioos:station:NOAA.NERRS:gtmpcwq:1,2013-12-29T20:45:00Z,29.6671,-81.2574,0.0,18.9,2 
NERRS,ioos:station:NOAA.NERRS:gtmpcwq:1,2013-12-29T21:45:00Z,29.6671,-81.2574,0.0,19.0,2 
NERRS,ioos:station:NOAA.NERRS:gtmpcwq:1,2013-12-29T22:45:00Z,29.6671,-81.2574,0.0,19.6,2 
NERRS,ioos:station:NOAA.NERRS:gtmpcwq:1,2013-12-29T23:45:00Z,29.6671,-81.2574,0.0,19.6,2 
NERRS,ioos:station:NOAA.NERRS:gtmpcwq:1,2013-12-30T00:45:00Z,29.6671,-81.2574,0.0,19.8,2 
NERRS,ioos:station:NOAA.NERRS:gtmpcwq:1,2013-12-30T01:45:00Z,29.6671,-81.2574,0.0,19.9,2 
NERRS,ioos:station:NOAA.NERRS:gtmpcwq:1,2013-12-30T02:45:00Z,29.6671,-81.2574,0.0,20.0,2 
NERRS,ioos:station:NOAA.NERRS:gtmpcwq:1,2013-12-30T03:45:00Z,29.6671,-81.2574,0.0,19.9,2 
NERRS,ioos:station:NOAA.NERRS:gtmpcwq:1,2013-12-30T04:45:00Z,29.6671,-81.2574,0.0,19.8,2 
NERRS,ioos:station:NOAA.NERRS:gtmpcwq:1,2013-12-30T05:45:00Z,29.6671,-81.2574,0.0,19.8,2 
NERRS,ioos:station:NOAA.NERRS:gtmpcwq:1,2013-12-30T06:45:00Z,29.6671,-81.2574,0.0,19.7,2 
NERRS,ioos:station:NOAA.NERRS:gtmpcwq:1,2013-12-30T07:45:00Z,29.6671,-81.2574,0.0,19.6,2 
NERRS,ioos:station:NOAA.NERRS:gtmpcwq:1,2013-12-30T09:45:00Z,29.6671,-81.2574,0.0,19.0,2 
NERRS,ioos:station:NOAA.NERRS:gtmpcwq:1,2013-12-30T10:45:00Z,29.6671,-81.2574,0.0,18.7,2 
NERRS,ioos:station:NOAA.NERRS:gtmpcwq:1,2013-12-30T11:45:00Z,29.6671,-81.2574,0.0,19.0,2 
NERRS,ioos:station:NOAA.NERRS:gtmpcwq:1,2013-12-30T12:45:00Z,29.6671,-81.2574,0.0,18.8,2 
NERRS,ioos:station:NOAA.NERRS:gtmpcwq:1,2013-12-30T13:45:00Z,29.6671,-81.2574,0.0,18.4,2 
NERRS,ioos:station:NOAA.NERRS:gtmpcwq:1,2013-12-30T14:45:00Z,29.6671,-81.2574,0.0,18.1,2 
NERRS,ioos:station:NOAA.NERRS:gtmpcwq:1,2013-12-30T15:45:00Z,29.6671,-81.2574,0.0,18.0,2 
NERRS,ioos:station:NOAA.NERRS:gtmpcwq:1,2013-12-30T16:45:00Z,29.6671,-81.2574,0.0,18.2,2 
NERRS,ioos:station:NOAA.NERRS:gtmpcwq:1,2013-12-30T17:45:00Z,29.6671,-81.2574,0.0,18.4,2 
NERRS,ioos:station:NOAA.NERRS:gtmpcwq:1,2013-12-30T18:45:00Z,29.6671,-81.2574,0.0,18.4,2 
NERRS,ioos:station:NOAA.NERRS:gtmpcwq:1,2013-12-30T19:45:00Z,29.6671,-81.2574,0.0,18.5,2 
NERRS,ioos:station:NOAA.NERRS:gtmpcwq:1,2013-12-30T20:45:00Z,29.6671,-81.2574,0.0,18.5,2 
NERRS,ioos:station:NOAA.NERRS:gtmpcwq:1,2013-12-30T21:45:00Z,29.6671,-81.2574,0.0,18.6,2 
NERRS,ioos:station:NOAA.NERRS:gtmpcwq:1,2013-12-30T23:45:00Z,29.6671,-81.2574,0.0,19.0,2 
NERRS,ioos:station:NOAA.NERRS:gtmpcwq:1,2013-12-31T00:45:00Z,29.6671,-81.2574,0.0,19.0,2 
NERRS,ioos:station:NOAA.NERRS:gtmpcwq:1,2013-12-31T01:45:00Z,29.6671,-81.2574,0.0,18.8,2 
NERRS,ioos:station:NOAA.NERRS:gtmpcwq:1,2013-12-31T02:45:00Z,29.6671,-81.2574,0.0,18.6,2 
NERRS,ioos:station:NOAA.NERRS:gtmpcwq:1,2013-12-31T03:45:00Z,29.6671,-81.2574,0.0,18.7,2 
NERRS,ioos:station:NOAA.NERRS:gtmpcwq:1,2013-12-31T04:45:00Z,29.6671,-81.2574,0.0,18.8,2 
NERRS,ioos:station:NOAA.NERRS:gtmpcwq:1,2013-12-31T05:45:00Z,29.6671,-81.2574,0.0,18.8,2 
NERRS,ioos:station:NOAA.NERRS:gtmpcwq:1,2013-12-31T06:45:00Z,29.6671,-81.2574,0.0,18.8,2 
NERRS,ioos:station:NOAA.NERRS:gtmpcwq:1,2013-12-31T07:45:00Z,29.6671,-81.2574,0.0,18.8,2 
NERRS,ioos:station:NOAA.NERRS:gtmpcwq:1,2013-12-31T08:45:00Z,29.6671,-81.2574,0.0,18.7,2 
NERRS,ioos:station:NOAA.NERRS:gtmpcwq:1,2013-12-31T09:45:00Z,29.6671,-81.2574,0.0,18.6,2 
NERRS,ioos:station:NOAA.NERRS:gtmpcwq:1,2013-12-31T10:45:00Z,29.6671,-81.2574,0.0,18.0,2 
NERRS,ioos:station:NOAA.NERRS:gtmpcwq:1,2013-12-31T11:45:00Z,29.6671,-81.2574,0.0,17.1,2 
NERRS,ioos:station:NOAA.NERRS:gtmpcwq:1,2013-12-31T12:45:00Z,29.6671,-81.2574,0.0,17.7,2 
NERRS,ioos:station:NOAA.NERRS:gtmpcwq:1,2013-12-31T13:45:00Z,29.6671,-81.2574,0.0,17.3,2 
NERRS,ioos:station:NOAA.NERRS:gtmpcwq:1,2013-12-31T14:45:00Z,29.6671,-81.2574,0.0,17.2,2 
NERRS,ioos:station:NOAA.NERRS:gtmpcwq:1,2013-12-31T15:45:00Z,29.6671,-81.2574,0.0,16.9,2 
NERRS,ioos:station:NOAA.NERRS:gtmpcwq:1,2013-12-31T16:45:00Z,29.6671,-81.2574,0.0,17.0,2 
NERRS,ioos:station:NOAA.NERRS:gtmpcwq:1,2013-12-31T17:45:00Z,29.6671,-81.2574,0.0,17.1,2 
NERRS,ioos:station:NOAA.NERRS:gtmpcwq:1,2013-12-31T18:45:00Z,29.6671,-81.2574,0.0,17.3,2 